[[{"header":{"parameterUnit":"m.s-1","parameterCategory":1,"la1":30.2991,"la2":30.254,"lo1":-89.0895,"lo2":-89.0444,"dy":0.0017,"dx":0.0017,"nx":28,"ny":28,"refTime":"2025-01-05T09:00:00:Z","depth":0,"parameterNumber":2,"parameterNumberName":"U-component_of_WINDS"},"data":[0,0,0,0,0,0,0,0,0,0,0,0,0,0,0,0,0,0,0,0,0,0,0,0,0,0,0,0,0,0,0,0,0,0,0,0,0,0,0,0,0,0,0,0,0,0,0,0,0,0,0,0,0,0,0,0,0,0,-5.4567,-5.4568,0,-5.4649,-5.465,-5.4651,-5.4645,-5.4644,-5.4643,-5.4642,-5.4721,-5.4724,-5.4727,0,0,0,0,0,0,0,0,0,0,0,0,0,-5.4401,-5.4404,-5.4567,-5.4568,-5.4569,-5.4649,-5.465,-5.4651,-5.4646,-5.4644,-5.4643,-5.4641,-5.472,-5.4723,-5.4727,0,0,0,0,0,0,0,0,0,0,0,0,0,-5.4477,-5.4405,-5.4567,-5.4576,-5.4578,-5.4649,-5.465,-5.4651,-5.4646,-5.4644,-5.4642,-5.4641,-5.4718,-5.4723,-5.4728,-5.4793,0,0,-5.4742,-5.4744,0,0,0,0,0,0,0,0,-5.4473,-5.4483,-5.4574,-5.4576,-5.4577,-5.4635,-5.462,-5.4699,-5.4646,-5.462,-5.4642,-5.464,-5.4693,-5.47,-5.4719,-5.4797,-5.48,-5.4743,-5.4746,-5.4748,-5.4749,0,0,0,0,0,0,0,-5.4468,-5.448,-5.4599,-5.4575,-5.4577,-5.4575,-5.4584,-5.4635,-5.4665,-5.4622,-5.4622,-5.4632,-5.4694,-5.4715,-5.4721,-5.4801,-5.4743,-5.4747,-5.475,-5.4752,-5.4936,-5.4938,0,0,0,0,0,0,-5.4461,-5.4475,-5.4597,-5.4602,-5.452,-5.4579,-5.4589,-5.4618,-5.4665,-5.467,-5.4633,-5.4631,-5.4707,-5.4715,-5.4724,-5.4802,-5.4748,-5.4752,-5.4755,-5.4934,-5.4937,-5.4939,0,0,0,0,0,0,-5.4457,-5.4472,-5.4593,-5.4539,-5.4554,-5.4584,-5.4617,-5.4621,-5.4642,-5.4674,-5.4678,-5.4649,-5.4706,-5.4717,-5.4776,-5.4805,-5.4754,-5.4759,-5.4932,-5.4935,-5.4938,-5.496,0,0,0,0,0,0,-5.4453,-5.4471,-5.4496,-5.4539,-5.4557,-5.4645,-5.4619,-5.4624,-5.4651,-5.4649,-5.469,-5.4695,-5.4706,-5.4769,-5.4781,-5.4811,-5.4763,-5.4929,-5.4933,-5.4937,-5.4957,-5.4964,-5.497,0,0,0,0,0,-5.4447,-5.4498,-5.4498,-5.4512,-5.459,-5.4647,-5.4657,-5.467,-5.4653,-5.4678,-5.4699,-5.4693,-5.4801,-5.4775,-5.4789,-5.482,-5.4928,-5.4932,-5.4937,-5.4954,-5.4962,-5.4969,0,0,0,0,0,0,-5.4455,-5.4504,-5.4504,-5.4571,-5.4606,-5.4646,-5.4678,-5.4678,-5.4717,-5.4713,-5.4727,-5.4736,-5.4795,-5.4814,-5.4785,-5.4886,-5.4862,-5.4869,-5.4871,-5.4879,-5.4885,-5.4877,-5.4767,0,0,0,0,0,-5.4466,-5.451,-5.4549,-5.4605,-5.4622,-5.4648,-5.4673,-5.4681,-5.4716,-5.473,-5.4755,-5.4788,-5.4829,-5.4855,-5.4895,-5.4961,-5.4969,-5.499,-5.4996,-5.5001,-5.5006,-5.5041,-5.505,-5.4954,-5.4954,-5.4954,0,0,-5.4486,-5.4518,-5.4545,-5.4608,-5.4635,-5.4678,-5.466,-5.4706,-5.4738,-5.4736,-5.4793,-5.4814,-5.4851,-5.4914,-5.4943,-5.4931,-5.5035,-5.5007,-5.501,-5.5013,-5.5047,-5.5056,-5.5064,-5.4957,-5.4956,-5.4956,0,0,-5.4546,-5.4575,-5.4624,-5.4653,-5.4696,-5.4713,-5.4725,-5.4767,-5.478,-5.4839,-5.4838,-5.4876,-5.4947,-5.4974,-5.4996,-5.5069,-5.5064,-5.5082,-5.5112,-5.5147,-5.5154,-5.5161,-5.5185,-5.5193,-5.5087,-5.5087,-5.5087,0,-5.4565,-5.4632,-5.4649,-5.4697,-5.4724,-5.4727,-5.4776,-5.4802,-5.4855,-5.4873,-5.4861,-5.495,-5.4976,-5.5044,-5.5062,-5.5082,-5.5094,-5.5075,-5.5152,-5.5159,-5.5166,-5.5188,-5.5197,-5.5089,-5.5089,-5.5089,-5.5089,0,-5.4653,-5.47,-5.4734,-5.4787,-5.4818,-5.4866,-5.489,-5.4919,-5.4925,-5.4943,-5.5002,-5.5034,-5.508,-5.5098,-5.5103,-5.5167,-5.5159,-5.515,-5.5125,-5.5176,-5.5198,-5.5207,-5.5091,-5.5091,-5.509,-5.509,0,0,-5.4716,-5.478,-5.4792,-5.4816,-5.4865,-5.49,-5.4949,-5.4996,-5.502,-5.5058,-5.5097,-5.5158,-5.515,-5.5176,-5.5185,-5.5216,-5.5269,-5.5203,-5.5204,-5.5212,-5.534,-5.5344,-5.5354,-5.5268,-5.527,-5.5272,-5.5336,0,-5.4778,-5.4865,-5.4883,-5.4957,-5.5,-5.5005,-5.5047,-5.5081,-5.51,-5.5138,-5.5158,-5.5201,-5.5188,-5.5204,-5.5235,-5.5256,-5.5295,-5.5252,-5.5302,-5.5304,-5.5289,-5.5366,-5.5371,-5.543,-5.5345,-5.5346,-5.5347,0,-5.4861,-5.4902,-5.4982,-5.5025,-5.5044,-5.5081,-5.5126,-5.5163,-5.5202,-5.5213,-5.5244,-5.525,-5.5299,-5.5276,-5.5342,-5.5313,-5.5335,-5.5349,-5.5352,-5.5354,-5.5326,-5.5367,-5.5449,-5.5457,-5.5361,-5.536,-5.5359,0,-5.4896,-5.4972,-5.5029,-5.505,-5.5103,-5.5129,-5.5152,-5.5189,-5.5216,-5.5255,-5.5273,-5.5317,-5.534,-5.5374,-5.5391,-5.5373,-5.5456,-5.5434,-5.5465,-5.5465,-5.5479,-5.5477,-5.5563,-5.5499,-5.5499,-5.5499,-5.5498,0,-5.4962,-5.5009,-5.5046,-5.508,-5.5134,-5.5154,-5.5206,-5.5229,-5.5262,-5.53,-5.5308,-5.5343,-5.5366,-5.5404,-5.5418,-5.5471,-5.5482,-5.5491,-5.5493,-5.5488,-5.5487,-5.55,-5.5495,-5.5501,-5.5501,-5.55,-5.55,0,-5.5008,-5.5035,-5.5097,-5.5143,-5.5156,-5.5193,-5.5232,-5.5265,-5.5286,-5.5334,-5.5347,-5.5378,-5.5424,-5.5446,-5.5502,-5.5511,-5.557,-5.5571,-5.5557,-5.5557,-5.5586,-5.5582,-5.568,-5.5694,-5.5624,-5.5624,-5.5625,0,-5.5046,-5.5084,-5.5135,-5.5162,-5.5186,-5.523,-5.5258,-5.5281,-5.531,-5.5358,-5.5385,-5.5432,-5.547,-5.5542,-5.5569,-5.5612,-5.5613,-5.5645,-5.5619,-5.5613,-5.561,-5.5606,-5.5609,-5.5648,-5.5648,-5.5649,-5.5649,0,-5.5111,-5.5123,-5.5165,-5.5212,-5.5247,-5.5285,-5.5321,-5.5343,-5.5371,-5.5403,-5.5451,-5.5481,-5.554,-5.5585,-5.5631,-5.5653,-5.5655,-5.5658,-5.5667,-5.566,-5.565,-5.5653,-5.5566,-5.5654,-5.5654,-5.5654,-5.5653,-5.5653,-5.5153,-5.5186,-5.5227,-5.5274,-5.5305,-5.534,-5.5373,-5.54,-5.544,-5.5491,-5.5502,-5.5552,-5.559,-5.5652,-5.5676,-5.5715,-5.5707,-5.5721,-5.5724,-5.5726,-5.5726,-5.5647,-5.5723,-5.5723,-5.5723,-5.5723,-5.5723,0,-5.5216,-5.5243,-5.5287,-5.5339,-5.5376,-5.5378,-5.542,-5.5449,-5.5494,-5.5531,-5.5569,-5.5624,-5.5669,-5.57,-5.5746,-5.5771,-5.5773,-5.5781,-5.5778,-5.5783,-5.5731,-5.5718,-5.5779,-5.5779,-5.5779,-5.5779,-5.5779,-5.5779,-5.5252,-5.5308,-5.5325,-5.5396,-5.5424,-5.5474,-5.5498,-5.5529,-5.5559,-5.562,-5.5658,-5.568,-5.5714,-5.5762,-5.5803,-5.5811,-5.5826,-5.5835,-5.5842,-5.5792,-5.5786,-5.5781,-5.5768,-5.5838,-5.5839,-5.589,-5.589,-5.5891]},{"header":{"parameterUnit":"m.s-1","parameterCategory":1,"la1":30.2991,"la2":30.254,"lo1":-89.0895,"lo2":-89.0444,"dy":0.0017,"dx":0.0017,"nx":28,"ny":28,"refTime":"2025-01-05T09:00:00:Z","depth":0,"parameterNumber":3,"parameterNumberName":"V-component_of_WINDS"},"data":[0,0,0,0,0,0,0,0,0,0,0,0,0,0,0,0,0,0,0,0,0,0,0,0,0,0,0,0,0,0,0,0,0,0,0,0,0,0,0,0,0,0,0,0,0,0,0,0,0,0,0,0,0,0,0,0,0,0,3.6645,3.6646,0,3.6778,3.6779,3.6781,3.6787,3.6785,3.6784,3.6782,3.6921,3.6926,3.6931,0,0,0,0,0,0,0,0,0,0,0,0,0,3.6402,3.6406,3.6645,3.6646,3.6648,3.6778,3.6779,3.6781,3.6787,3.6785,3.6783,3.6782,3.6919,3.6925,3.6931,0,0,0,0,0,0,0,0,0,0,0,0,0,3.6518,3.6407,3.6644,3.6667,3.667,3.6777,3.6779,3.6782,3.6788,3.6785,3.6783,3.6781,3.6917,3.6925,3.6932,3.7027,0,0,3.6956,3.6959,0,0,0,0,0,0,0,0,3.6511,3.6527,3.6662,3.6665,3.6669,3.6763,3.6744,3.6864,3.6788,3.6743,3.6782,3.678,3.687,3.6882,3.6912,3.7034,3.7039,3.6957,3.6961,3.6965,3.6967,0,0,0,0,0,0,0,3.6503,3.6521,3.6697,3.6664,3.6668,3.6672,3.6686,3.6767,3.6818,3.6747,3.6748,3.6763,3.6872,3.6905,3.6915,3.7042,3.6956,3.6963,3.6968,3.6971,3.7254,3.7257,0,0,0,0,0,0,3.649,3.6515,3.6693,3.6701,3.6583,3.6678,3.6694,3.6736,3.6818,3.6828,3.6765,3.6763,3.6893,3.6906,3.692,3.7041,3.6964,3.6972,3.6976,3.7251,3.7255,3.7258,0,0,0,0,0,0,3.6485,3.6506,3.6688,3.6608,3.6632,3.6685,3.6732,3.6739,3.6772,3.6831,3.6841,3.6789,3.6891,3.6909,3.7002,3.7046,3.6975,3.6982,3.7248,3.7252,3.7256,3.7281,0,0,0,0,0,0,3.6478,3.6504,3.6539,3.6609,3.6636,3.6765,3.6734,3.6744,3.6785,3.6784,3.6856,3.6866,3.6891,3.699,3.7009,3.7055,3.6988,3.7244,3.725,3.7255,3.7277,3.7286,3.7294,0,0,0,0,0,3.6469,3.654,3.6541,3.6562,3.668,3.6768,3.6783,3.681,3.6788,3.6826,3.6865,3.6863,3.7038,3.7,3.7021,3.707,3.7242,3.7248,3.7255,3.7273,3.7284,3.7293,0,0,0,0,0,0,3.6474,3.6549,3.6551,3.6646,3.6701,3.6769,3.6816,3.682,3.6883,3.6879,3.691,3.6927,3.702,3.7054,3.701,3.717,3.7137,3.7149,3.7144,3.7155,3.7163,3.7155,3.6995,0,0,0,0,0,3.6486,3.6549,3.6612,3.669,3.6717,3.6762,3.6801,3.6817,3.6875,3.6899,3.6944,3.7001,3.707,3.7114,3.7179,3.7281,3.73,3.7326,3.7334,3.7341,3.7351,3.7413,3.7427,3.7279,3.7279,3.7279,0,0,3.6511,3.656,3.6598,3.6692,3.6736,3.6804,3.6781,3.6852,3.6904,3.6909,3.7001,3.7036,3.7103,3.7202,3.7248,3.7233,3.7396,3.7349,3.7354,3.7361,3.7422,3.7436,3.7448,3.7284,3.7283,3.7282,0,0,3.6593,3.6635,3.6707,3.6752,3.682,3.685,3.6867,3.6936,3.696,3.7052,3.7059,3.7121,3.7236,3.7285,3.7325,3.743,3.7434,3.7451,3.7496,3.7556,3.7568,3.7579,3.7621,3.7635,3.746,3.746,3.746,0,3.6617,3.6717,3.6743,3.6816,3.6859,3.6868,3.6944,3.6987,3.7072,3.7103,3.7085,3.7234,3.7279,3.7392,3.7419,3.7449,3.7473,3.7444,3.7564,3.7575,3.7585,3.7626,3.7641,3.7462,3.7462,3.7462,3.7462,0,3.6745,3.6815,3.6866,3.695,3.6998,3.7072,3.7112,3.7158,3.7171,3.7204,3.7301,3.7355,3.7435,3.7462,3.7474,3.7579,3.7569,3.7557,3.7526,3.7601,3.764,3.7655,3.7465,3.7464,3.7464,3.7463,0,0,3.6833,3.6933,3.6951,3.6992,3.7069,3.7125,3.72,3.7278,3.732,3.7379,3.7446,3.7546,3.7537,3.7583,3.7601,3.7653,3.774,3.7636,3.7638,3.7657,3.7864,3.7875,3.7893,3.7741,3.7744,3.7747,3.786,0,3.6927,3.7061,3.7089,3.7206,3.7274,3.7285,3.7352,3.7408,3.7442,3.7506,3.7543,3.7615,3.7595,3.7624,3.7676,3.7718,3.7782,3.771,3.7808,3.7811,3.7794,3.7912,3.7923,3.8027,3.7875,3.7878,3.7879,0,3.7054,3.7118,3.7242,3.7315,3.7345,3.7404,3.7481,3.754,3.7606,3.7627,3.7679,3.7693,3.7776,3.774,3.7857,3.7807,3.7849,3.7876,3.7881,3.7894,3.7852,3.7932,3.8061,3.8078,3.7903,3.7901,3.7899,0,3.7111,3.7229,3.732,3.7353,3.7439,3.7481,3.7519,3.7582,3.7629,3.7696,3.7727,3.7803,3.7845,3.7905,3.794,3.7909,3.8056,3.8021,3.808,3.8079,3.8112,3.811,3.8253,3.8132,3.8132,3.8132,3.8132,0,3.7215,3.7292,3.7348,3.7404,3.7492,3.7524,3.7611,3.7649,3.7706,3.7772,3.7785,3.7847,3.7888,3.7958,3.7986,3.8082,3.8099,3.8121,3.8129,3.8122,3.812,3.8153,3.8148,3.8136,3.8135,3.8134,3.8134,0,3.7295,3.7335,3.7436,3.7509,3.753,3.7592,3.7656,3.7713,3.7747,3.7832,3.7853,3.7908,3.799,3.8031,3.8133,3.8152,3.8262,3.8262,3.824,3.8244,3.8302,3.8298,3.8474,3.8501,3.8358,3.8359,3.836,0,3.7361,3.7421,3.7502,3.7547,3.7586,3.7658,3.7707,3.7742,3.7792,3.7874,3.7922,3.8005,3.8074,3.8206,3.8256,3.8335,3.8341,3.8397,3.8353,3.8347,3.8347,3.8345,3.8354,3.8406,3.8407,3.8408,3.8409,0,3.7475,3.7492,3.7561,3.7639,3.7697,3.7759,3.7821,3.7857,3.7903,3.7959,3.8044,3.8098,3.8203,3.8288,3.8371,3.8413,3.8421,3.8423,3.8441,3.8438,3.8424,3.8437,3.8266,3.8419,3.8418,3.8417,3.8417,3.8416,3.7553,3.7609,3.7676,3.7754,3.7804,3.7862,3.7921,3.7964,3.8035,3.8124,3.814,3.8232,3.83,3.8414,3.8458,3.8532,3.852,3.8545,3.8553,3.856,3.8565,3.8409,3.8546,3.8546,3.8546,3.8546,3.8546,0,3.7672,3.7716,3.7787,3.7875,3.7937,3.7937,3.8007,3.806,3.814,3.8202,3.8271,3.8371,3.8453,3.8511,3.8596,3.8644,3.865,3.8666,3.8665,3.8675,3.8568,3.8546,3.866,3.866,3.866,3.866,3.866,3.866,3.7742,3.7838,3.7864,3.7987,3.8031,3.8121,3.8161,3.8217,3.8268,3.8379,3.8448,3.8484,3.8547,3.8637,3.8714,3.8729,3.8762,3.8778,3.8794,3.8694,3.8682,3.8671,3.865,3.8784,3.8784,3.8895,3.8896,3.8897]}]]